EIN68 KLAX-EIDW

Flight info

Callsign EIN68
Flight time N/A
Altitude 37000
Route OSHNN1 BEALE Q842 WINEN DCT KU60O DCT KU87S DCT KU09U DCT ISN DCT AMENU DCT 55N095W 58N090W/N0465F390 DCT BODRA DCT 65N070W/M082F390 DCT DARUB DCT 68N050W 6730N04000W 6530N03000W 6130N02000W DCT AGORI/N0463F390 DCT OSBOX DCT REVNU DCT OLAPO OLAPO4L
Aircraft A333/H-SDE3GHIJ2J3J5M1RVWXY/LB2D1

Departure

Time 2026-04-24 05:14
Airport Los Angeles International Airport (KLAX)

Arrival

Time N/A
Airport Dublin Airport (EIDW)
Time Latitude Longitude Altitude Speed Heading
2026-04-24 04:40 33.94153 -118.40950 102 ft 0 kts 263°
2026-04-24 05:00 33.94156 -118.40923 99 ft 4 kts 263°
2026-04-24 05:01 33.94159 -118.40898 97 ft 4 kts 265°
2026-04-24 05:01 33.94162 -118.40867 98 ft 4 kts 243°
2026-04-24 05:01 33.94166 -118.40858 93 ft 1 kts 233°
2026-04-24 05:01 33.94149 -118.40859 91 ft 4 kts 167°
2026-04-24 05:02 33.94124 -118.40847 107 ft 4 kts 157°
2026-04-24 05:02 33.94098 -118.40837 101 ft 4 kts 167°
2026-04-24 05:02 33.94075 -118.40833 99 ft 4 kts 173°
2026-04-24 05:02 33.94053 -118.40830 99 ft 0 kts 173°
2026-04-24 05:05 33.94035 -118.40827 101 ft 4 kts 172°
2026-04-24 05:06 33.93993 -118.40820 101 ft 8 kts 171°
2026-04-24 05:06 33.93928 -118.40808 102 ft 11 kts 164°
2026-04-24 05:06 33.93864 -118.40756 104 ft 11 kts 149°
2026-04-24 05:06 33.93819 -118.40692 106 ft 9 kts 108°
2026-04-24 05:07 33.93819 -118.40599 106 ft 13 kts 83°
2026-04-24 05:07 33.93831 -118.40471 107 ft 18 kts 83°
2026-04-24 05:07 33.93848 -118.40307 107 ft 22 kts 83°
2026-04-24 05:07 33.93866 -118.40124 108 ft 22 kts 83°
2026-04-24 05:08 33.93883 -118.39948 108 ft 21 kts 83°
2026-04-24 05:08 33.93900 -118.39776 107 ft 21 kts 83°
2026-04-24 05:08 33.93918 -118.39607 107 ft 20 kts 82°
2026-04-24 05:08 33.93936 -118.39443 106 ft 20 kts 82°
2026-04-24 05:09 33.93954 -118.39277 104 ft 20 kts 82°
2026-04-24 05:09 33.93972 -118.39116 105 ft 19 kts 82°
2026-04-24 05:09 33.93986 -118.38963 105 ft 18 kts 84°
2026-04-24 05:09 33.93998 -118.38817 105 ft 17 kts 83°
2026-04-24 05:10 33.94011 -118.38679 106 ft 16 kts 83°
2026-04-24 05:10 33.94025 -118.38553 107 ft 15 kts 83°
2026-04-24 05:10 33.94037 -118.38433 107 ft 14 kts 82°
2026-04-24 05:10 33.94050 -118.38320 107 ft 14 kts 82°
2026-04-24 05:11 33.94062 -118.38208 107 ft 13 kts 82°
2026-04-24 05:11 33.94073 -118.38098 106 ft 13 kts 83°
2026-04-24 05:11 33.94067 -118.38035 107 ft 0 kts 118°
2026-04-24 05:12 33.94066 -118.38033 108 ft 2 kts 120°
2026-04-24 05:12 33.94045 -118.38015 109 ft 6 kts 155°
2026-04-24 05:12 33.94004 -118.38027 110 ft 9 kts 223°
2026-04-24 05:12 33.93974 -118.38131 114 ft 18 kts 262°
2026-04-24 05:13 33.93867 -118.39156 108 ft 114 kts 262°
2026-04-24 05:13 33.93759 -118.40243 114 ft 155 kts 262°
2026-04-24 05:13 33.93612 -118.41614 503 ft 160 kts 263°
2026-04-24 05:14 33.93475 -118.42919 1120 ft 159 kts 260°
2026-04-24 05:14 33.93272 -118.44281 1423 ft 168 kts 261°
2026-04-24 05:14 33.93068 -118.45694 1608 ft 178 kts 252°
2026-04-24 05:14 33.92430 -118.47020 1753 ft 191 kts 235°
2026-04-24 05:15 33.91590 -118.48339 1885 ft 206 kts 233°
2026-04-24 05:15 33.90663 -118.49726 1982 ft 225 kts 232°
2026-04-24 05:15 33.89618 -118.51219 2221 ft 237 kts 231°
2026-04-24 05:15 33.88518 -118.52736 2589 ft 244 kts 229°
2026-04-24 05:16 33.87361 -118.54275 2993 ft 251 kts 228°
2026-04-24 05:16 33.85979 -118.55576 3384 ft 258 kts 204°
2026-04-24 05:16 33.84202 -118.55959 3794 ft 265 kts 173°
2026-04-24 05:16 33.82375 -118.55509 4177 ft 271 kts 165°
2026-04-24 05:17 33.80514 -118.54985 4569 ft 277 kts 165°
2026-04-24 05:17 33.78650 -118.54401 5137 ft 274 kts 167°
2026-04-24 05:17 33.76835 -118.53869 5942 ft 264 kts 167°
2026-04-24 05:17 33.75045 -118.53365 6498 ft 265 kts 166°
2026-04-24 05:18 33.73228 -118.52883 6925 ft 270 kts 168°
2026-04-24 05:18 33.71392 -118.52309 7354 ft 275 kts 159°
2026-04-24 05:18 33.69788 -118.51043 7849 ft 280 kts 133°
2026-04-24 05:18 33.68831 -118.48997 8229 ft 286 kts 109°
2026-04-24 05:19 33.68195 -118.46687 8522 ft 297 kts 107°
2026-04-24 05:19 33.67552 -118.44305 8977 ft 300 kts 109°
2026-04-24 05:19 33.66876 -118.41940 9605 ft 299 kts 111°
2026-04-24 05:19 33.66162 -118.39598 10153 ft 299 kts 111°
2026-04-24 05:20 33.65415 -118.37250 10527 ft 306 kts 112°
2026-04-24 05:20 33.64724 -118.34774 10742 ft 320 kts 103°
2026-04-24 05:20 33.64458 -118.32071 10951 ft 333 kts 92°
2026-04-24 05:20 33.64425 -118.29240 11162 ft 345 kts 90°
2026-04-24 05:21 33.64435 -118.26308 11378 ft 357 kts 89°
2026-04-24 05:21 33.64454 -118.23288 11566 ft 369 kts 88°
2026-04-24 05:21 33.64782 -118.20226 11751 ft 379 kts 73°
2026-04-24 05:21 33.65881 -118.17332 11916 ft 386 kts 53°
2026-04-24 05:22 33.67727 -118.14992 12089 ft 390 kts 37°
2026-04-24 05:22 33.69900 -118.12989 12345 ft 396 kts 33°
2026-04-24 05:22 33.72135 -118.11025 12709 ft 400 kts 33°
2026-04-24 05:22 33.74383 -118.09045 13072 ft 403 kts 33°
2026-04-24 05:23 33.76646 -118.07038 13413 ft 405 kts 33°
2026-04-24 05:23 33.78911 -118.05017 13745 ft 409 kts 33°
2026-04-24 05:23 33.81208 -118.02961 14058 ft 411 kts 33°
2026-04-24 05:23 33.83509 -118.00896 14404 ft 414 kts 33°
2026-04-24 05:24 33.85818 -117.98821 14708 ft 416 kts 33°
2026-04-24 05:24 33.88140 -117.96733 15071 ft 417 kts 33°
2026-04-24 05:24 33.89671 -117.95354 15304 ft 418 kts 33°
2026-04-24 05:24 33.92007 -117.93236 15625 ft 420 kts 33°
2026-04-24 05:25 33.94341 -117.91105 15943 ft 423 kts 33°
2026-04-24 05:25 33.97488 -117.88227 16348 ft 426 kts 33°
2026-04-24 05:25 33.99053 -117.86796 16558 ft 427 kts 33°
2026-04-24 05:25 34.01431 -117.84619 16856 ft 430 kts 33°
2026-04-24 05:26 34.03815 -117.82436 17146 ft 432 kts 33°
2026-04-24 05:26 34.06994 -117.79522 17523 ft 435 kts 34°
2026-04-24 05:26 34.09281 -117.77104 17802 ft 441 kts 43°
2026-04-24 05:26 34.10667 -117.75233 17988 ft 444 kts 46°
2026-04-24 05:27 34.12644 -117.72340 18273 ft 447 kts 47°
2026-04-24 05:27 34.14582 -117.69447 18518 ft 449 kts 48°
2026-04-24 05:27 34.16549 -117.66509 18780 ft 451 kts 48°
2026-04-24 05:27 34.18524 -117.63564 19048 ft 452 kts 48°
2026-04-24 05:28 34.20510 -117.60606 19356 ft 453 kts 48°
2026-04-24 05:28 34.22495 -117.57648 19629 ft 454 kts 48°
2026-04-24 05:28 34.24491 -117.54672 19849 ft 456 kts 48°
2026-04-24 05:28 34.26495 -117.51693 20083 ft 458 kts 48°
2026-04-24 05:29 34.28501 -117.48702 20324 ft 459 kts 48°
2026-04-24 05:29 34.30513 -117.45697 20564 ft 460 kts 48°
2026-04-24 05:29 34.32528 -117.42685 20801 ft 462 kts 48°
2026-04-24 05:29 34.34552 -117.39656 21044 ft 463 kts 48°
2026-04-24 05:30 34.36581 -117.36620 21264 ft 465 kts 48°
2026-04-24 05:30 34.38617 -117.33571 21490 ft 466 kts 48°
2026-04-24 05:30 34.40660 -117.30508 21720 ft 468 kts 48°
2026-04-24 05:30 34.42712 -117.27431 21938 ft 469 kts 48°
2026-04-24 05:31 34.44741 -117.24383 22176 ft 471 kts 48°
2026-04-24 05:31 34.46799 -117.21291 22484 ft 472 kts 48°
2026-04-24 05:31 34.48866 -117.18182 22637 ft 474 kts 48°
2026-04-24 05:31 34.50937 -117.15064 22893 ft 475 kts 48°
2026-04-24 05:32 34.53014 -117.11935 23140 ft 477 kts 48°
2026-04-24 05:32 34.55118 -117.08805 23380 ft 478 kts 47°
2026-04-24 05:32 34.57245 -117.05704 23631 ft 479 kts 47°
2026-04-24 05:32 34.59388 -117.02589 23829 ft 481 kts 47°
2026-04-24 05:33 34.61534 -116.99470 23998 ft 482 kts 47°
2026-04-24 05:33 34.63685 -116.96341 24191 ft 484 kts 47°
2026-04-24 05:33 34.65845 -116.93188 24381 ft 486 kts 47°
2026-04-24 05:34 34.70176 -116.86856 24760 ft 489 kts 47°
2026-04-24 05:34 34.72352 -116.83671 24952 ft 491 kts 47°
2026-04-24 05:34 34.74539 -116.80466 25140 ft 492 kts 47°
2026-04-24 05:34 34.76727 -116.77259 25324 ft 494 kts 47°
2026-04-24 05:35 34.78899 -116.74072 25535 ft 495 kts 47°
2026-04-24 05:35 34.81105 -116.70832 25709 ft 497 kts 47°
2026-04-24 05:35 34.83310 -116.67590 25895 ft 498 kts 47°
2026-04-24 05:35 34.85534 -116.64348 26064 ft 499 kts 45°
2026-04-24 05:36 34.87849 -116.61198 26241 ft 500 kts 44°
2026-04-24 05:36 34.90203 -116.58063 26436 ft 501 kts 44°
2026-04-24 05:36 34.92563 -116.54925 26633 ft 502 kts 44°
2026-04-24 05:36 34.94923 -116.51779 26808 ft 504 kts 44°
2026-04-24 05:37 34.97290 -116.48616 26981 ft 505 kts 44°
2026-04-24 05:37 34.99664 -116.45438 27158 ft 507 kts 44°
2026-04-24 05:37 35.02038 -116.42257 27343 ft 508 kts 44°
2026-04-24 05:37 35.04416 -116.39066 27508 ft 510 kts 44°
2026-04-24 05:38 35.06804 -116.35859 27673 ft 511 kts 44°
2026-04-24 05:38 35.09167 -116.32681 27842 ft 513 kts 44°
2026-04-24 05:38 35.11562 -116.29455 28078 ft 513 kts 44°
2026-04-24 05:38 35.13962 -116.26221 28188 ft 515 kts 44°
2026-04-24 05:39 35.16375 -116.22963 28340 ft 517 kts 44°
2026-04-24 05:39 35.18799 -116.19693 28498 ft 518 kts 44°
2026-04-24 05:39 35.21221 -116.16421 28676 ft 519 kts 44°
2026-04-24 05:39 35.23644 -116.13144 28907 ft 519 kts 44°
2026-04-24 05:40 35.26066 -116.09866 29180 ft 518 kts 44°
2026-04-24 05:40 35.28479 -116.06595 29426 ft 518 kts 44°
2026-04-24 05:40 35.30893 -116.03321 29652 ft 517 kts 42°
2026-04-24 05:40 35.33306 -116.00054 29896 ft 517 kts 44°
2026-04-24 05:41 35.35718 -115.96775 30110 ft 517 kts 44°
2026-04-24 05:41 35.38123 -115.93500 30319 ft 517 kts 44°
2026-04-24 05:41 35.40527 -115.90226 30468 ft 517 kts 44°
2026-04-24 05:41 35.42901 -115.86988 30667 ft 517 kts 44°
2026-04-24 05:42 35.45307 -115.83707 30840 ft 517 kts 44°
2026-04-24 05:42 35.47710 -115.80424 31022 ft 517 kts 44°
2026-04-24 05:42 35.50113 -115.77141 31188 ft 517 kts 44°
2026-04-24 05:42 35.52515 -115.73853 31375 ft 517 kts 44°
2026-04-24 05:43 35.54917 -115.70564 31537 ft 517 kts 44°
2026-04-24 05:43 35.57317 -115.67273 31732 ft 517 kts 44°
2026-04-24 05:43 35.59714 -115.63983 31910 ft 516 kts 44°
2026-04-24 05:43 35.62114 -115.60687 32064 ft 517 kts 44°
2026-04-24 05:44 35.64517 -115.57384 32200 ft 518 kts 44°
2026-04-24 05:44 35.66885 -115.54126 32371 ft 518 kts 44°
2026-04-24 05:44 35.69291 -115.50811 32544 ft 518 kts 44°
2026-04-24 05:44 35.71685 -115.47509 32716 ft 518 kts 44°
2026-04-24 05:45 35.74080 -115.44202 32880 ft 517 kts 44°
2026-04-24 05:45 35.76480 -115.40885 33021 ft 518 kts 44°
2026-04-24 05:45 35.78872 -115.37575 33172 ft 518 kts 44°
2026-04-24 05:45 35.81263 -115.34263 33332 ft 517 kts 44°
2026-04-24 05:46 35.83655 -115.30948 33487 ft 517 kts 44°
2026-04-24 05:46 35.86050 -115.27625 33585 ft 518 kts 44°
2026-04-24 05:46 35.88412 -115.24345 33741 ft 518 kts 44°
2026-04-24 05:46 35.90796 -115.21029 33984 ft 516 kts 43°
2026-04-24 05:47 35.93179 -115.17712 34145 ft 516 kts 43°
2026-04-24 05:47 35.95558 -115.14399 34271 ft 516 kts 43°
2026-04-24 05:47 35.97941 -115.11077 34374 ft 516 kts 43°
2026-04-24 05:47 36.00320 -115.07757 34485 ft 516 kts 43°
2026-04-24 05:48 36.02703 -115.04428 34609 ft 517 kts 43°
2026-04-24 05:48 36.05085 -115.01096 34690 ft 517 kts 43°
2026-04-24 05:48 36.09858 -114.94413 34807 ft 518 kts 43°
2026-04-24 05:49 36.12243 -114.91067 34929 ft 518 kts 43°
2026-04-24 05:49 36.14628 -114.87719 35036 ft 518 kts 43°
2026-04-24 05:49 36.17087 -114.84477 35142 ft 514 kts 37°
2026-04-24 05:49 36.19851 -114.81740 35233 ft 505 kts 26°
2026-04-24 05:50 36.22797 -114.79528 35370 ft 501 kts 22°
2026-04-24 05:50 36.25830 -114.77438 35519 ft 498 kts 21°
2026-04-24 05:50 36.28889 -114.75423 35632 ft 497 kts 20°
2026-04-24 05:50 36.31955 -114.73437 35729 ft 497 kts 20°
2026-04-24 05:51 36.38094 -114.69451 35837 ft 499 kts 20°
2026-04-24 05:51 36.41173 -114.67429 35963 ft 498 kts 21°
2026-04-24 05:51 36.44232 -114.65404 36082 ft 498 kts 21°
2026-04-24 05:52 36.50349 -114.61329 36331 ft 498 kts 21°
2026-04-24 05:52 36.53409 -114.59285 36454 ft 498 kts 21°
2026-04-24 05:52 36.56454 -114.57250 36553 ft 498 kts 21°
2026-04-24 05:53 36.62523 -114.53187 36691 ft 498 kts 21°
2026-04-24 05:53 36.65578 -114.51141 36818 ft 498 kts 21°
2026-04-24 05:53 36.68637 -114.49092 36856 ft 499 kts 21°
2026-04-24 05:54 36.74704 -114.44792 36883 ft 504 kts 24°
2026-04-24 05:54 36.80647 -114.40109 36866 ft 505 kts 25°
2026-04-24 05:55 36.86556 -114.35378 36874 ft 504 kts 25°
2026-04-24 05:55 36.92438 -114.30711 36876 ft 504 kts 25°
2026-04-24 05:56 36.98372 -114.26031 36880 ft 504 kts 25°
2026-04-24 05:56 37.04305 -114.21353 36895 ft 503 kts 25°
2026-04-24 05:57 37.10235 -114.16666 36903 ft 503 kts 25°
2026-04-24 05:57 37.16152 -114.11981 36911 ft 503 kts 25°
2026-04-24 05:58 37.22071 -114.07282 36914 ft 503 kts 25°
2026-04-24 05:58 37.27986 -114.02578 36958 ft 504 kts 25°
2026-04-24 05:59 37.33902 -113.97864 36927 ft 503 kts 25°
2026-04-24 05:59 37.39815 -113.93142 36927 ft 503 kts 25°
2026-04-24 06:00 37.45725 -113.88417 36937 ft 503 kts 25°
2026-04-24 06:00 37.51633 -113.83684 36941 ft 503 kts 25°
2026-04-24 06:01 37.57503 -113.78972 36939 ft 503 kts 25°
2026-04-24 06:01 37.63401 -113.74227 36948 ft 503 kts 25°
2026-04-24 06:02 37.69296 -113.69478 36942 ft 503 kts 25°
2026-04-24 06:02 37.75194 -113.64717 36941 ft 503 kts 25°
2026-04-24 06:03 37.81101 -113.59939 36975 ft 503 kts 25°
2026-04-24 06:03 37.86990 -113.55164 36949 ft 502 kts 25°
2026-04-24 06:04 37.92872 -113.50393 36946 ft 502 kts 25°
2026-04-24 06:04 37.98873 -113.45955 36944 ft 498 kts 21°
2026-04-24 06:05 38.04950 -113.41751 36963 ft 497 kts 21°
2026-04-24 06:05 38.10998 -113.37559 36955 ft 498 kts 21°
2026-04-24 06:06 38.17055 -113.33305 36963 ft 498 kts 22°
2026-04-24 06:06 38.23107 -113.29023 36979 ft 498 kts 22°
2026-04-24 06:07 38.29153 -113.24731 36995 ft 498 kts 22°
2026-04-24 06:07 38.35202 -113.20431 37010 ft 498 kts 22°
2026-04-24 06:08 38.41246 -113.16128 37021 ft 498 kts 22°
2026-04-24 06:08 38.47291 -113.11816 37026 ft 498 kts 22°
2026-04-24 06:09 38.53335 -113.07498 37024 ft 498 kts 22°
2026-04-24 06:09 38.59385 -113.03166 37018 ft 498 kts 22°
2026-04-24 06:10 38.65429 -112.98829 37001 ft 498 kts 22°
2026-04-24 06:11 38.74453 -112.92338 36979 ft 498 kts 22°
2026-04-24 06:11 38.80495 -112.87982 36976 ft 498 kts 22°
2026-04-24 06:12 38.86531 -112.83622 36981 ft 498 kts 22°
2026-04-24 06:12 38.92558 -112.79259 36986 ft 497 kts 22°
2026-04-24 06:13 38.98585 -112.74889 36988 ft 498 kts 22°
2026-04-24 06:13 39.04619 -112.70505 36977 ft 498 kts 22°
2026-04-24 06:14 39.09672 -112.66826 36989 ft 498 kts 22°
2026-04-24 06:14 39.16677 -112.61716 36984 ft 498 kts 22°
2026-04-24 06:15 39.21691 -112.58051 36982 ft 498 kts 22°
2026-04-24 06:15 39.27724 -112.53634 36980 ft 498 kts 22°
2026-04-24 06:16 39.33750 -112.49212 37002 ft 498 kts 23°
2026-04-24 06:16 39.39763 -112.44791 36990 ft 497 kts 23°
2026-04-24 06:17 39.45773 -112.40367 36985 ft 497 kts 23°
2026-04-24 06:17 39.51782 -112.35931 36987 ft 497 kts 23°
2026-04-24 06:18 39.57790 -112.31487 37015 ft 497 kts 24°
2026-04-24 06:18 39.63782 -112.27043 36989 ft 495 kts 24°
2026-04-24 06:19 39.69766 -112.22600 36985 ft 495 kts 24°
2026-04-24 06:19 39.75748 -112.18150 36990 ft 495 kts 24°
2026-04-24 06:20 39.81718 -112.13700 37012 ft 495 kts 24°
2026-04-24 06:20 39.87651 -112.09273 36985 ft 494 kts 24°
2026-04-24 06:21 39.93614 -112.04806 36992 ft 493 kts 24°
2026-04-24 06:21 39.99562 -112.00340 36991 ft 494 kts 25°
2026-04-24 06:22 40.05443 -111.95666 36986 ft 495 kts 26°
2026-04-24 06:22 40.11264 -111.90856 37013 ft 494 kts 27°
2026-04-24 06:23 40.17070 -111.86050 37026 ft 494 kts 27°
2026-04-24 06:23 40.22879 -111.81262 37030 ft 493 kts 27°
2026-04-24 06:24 40.28654 -111.76506 37026 ft 493 kts 27°
2026-04-24 06:24 40.34453 -111.71721 37026 ft 492 kts 27°
2026-04-24 06:25 40.40239 -111.66935 37015 ft 491 kts 27°
2026-04-24 06:25 40.46020 -111.62145 36999 ft 491 kts 27°
2026-04-24 06:26 40.51798 -111.57348 36988 ft 491 kts 27°
2026-04-24 06:26 40.57574 -111.52541 37021 ft 491 kts 27°
2026-04-24 06:27 40.63345 -111.47730 37009 ft 491 kts 27°
2026-04-24 06:27 40.69107 -111.42915 37004 ft 491 kts 27°
2026-04-24 06:28 40.74877 -111.38084 37001 ft 491 kts 27°
2026-04-24 06:28 40.80609 -111.33274 36990 ft 491 kts 27°
2026-04-24 06:29 40.86383 -111.28419 36983 ft 491 kts 27°
2026-04-24 06:29 40.92145 -111.23564 36992 ft 491 kts 27°
2026-04-24 06:30 40.97906 -111.18700 36993 ft 491 kts 27°
2026-04-24 06:30 41.03624 -111.13861 37038 ft 491 kts 27°
2026-04-24 06:31 41.09395 -111.08969 36997 ft 493 kts 27°
2026-04-24 06:31 41.15173 -111.04060 36999 ft 494 kts 27°
2026-04-24 06:32 41.20958 -110.99134 36999 ft 494 kts 27°
2026-04-24 06:32 41.26740 -110.94198 36998 ft 494 kts 27°
2026-04-24 06:33 41.32531 -110.89246 36997 ft 495 kts 27°
2026-04-24 06:33 41.38329 -110.84279 36993 ft 495 kts 27°
2026-04-24 06:34 41.44121 -110.79304 36988 ft 496 kts 27°
2026-04-24 06:34 41.49916 -110.74316 36972 ft 496 kts 27°
2026-04-24 06:35 41.55710 -110.69317 36964 ft 496 kts 27°
2026-04-24 06:35 41.61475 -110.64334 36961 ft 497 kts 28°
2026-04-24 06:36 41.67280 -110.59305 36951 ft 497 kts 28°
2026-04-24 06:36 41.73083 -110.54267 36945 ft 497 kts 28°
2026-04-24 06:37 41.78883 -110.49221 36948 ft 497 kts 28°
2026-04-24 06:37 41.84669 -110.44174 36937 ft 495 kts 28°
2026-04-24 06:38 41.90420 -110.39147 36929 ft 493 kts 28°
2026-04-24 06:38 41.96166 -110.34115 36930 ft 493 kts 28°
2026-04-24 06:39 42.01881 -110.29100 36921 ft 492 kts 29°
2026-04-24 06:39 42.07594 -110.24073 36917 ft 489 kts 29°
2026-04-24 06:40 42.13291 -110.19050 36894 ft 489 kts 29°
2026-04-24 06:40 42.18982 -110.14023 36890 ft 489 kts 29°
2026-04-24 06:41 42.24727 -110.09077 36897 ft 489 kts 21°
2026-04-24 06:41 42.30581 -110.04393 36891 ft 491 kts 21°
2026-04-24 06:42 42.36393 -109.99500 36911 ft 493 kts 23°
2026-04-24 06:42 42.42151 -109.94427 36915 ft 494 kts 24°
2026-04-24 06:43 42.47886 -109.89290 36930 ft 495 kts 24°
2026-04-24 06:43 42.53607 -109.84150 36915 ft 496 kts 24°
2026-04-24 06:44 42.59371 -109.78973 36906 ft 497 kts 24°
2026-04-24 06:44 42.65151 -109.73777 36900 ft 499 kts 24°
2026-04-24 06:45 42.70939 -109.68563 36920 ft 500 kts 24°
2026-04-24 06:45 42.76737 -109.63325 36917 ft 501 kts 24°
2026-04-24 06:46 42.82553 -109.58059 36915 ft 502 kts 24°
2026-04-24 06:46 42.88372 -109.52781 36932 ft 503 kts 24°
2026-04-24 06:47 42.94211 -109.47474 36957 ft 505 kts 24°
2026-04-24 06:47 43.00063 -109.42142 36933 ft 506 kts 25°
2026-04-24 06:48 43.05913 -109.36797 36942 ft 506 kts 25°
2026-04-24 06:48 43.11756 -109.31444 36955 ft 505 kts 25°
2026-04-24 06:49 43.17595 -109.26083 36953 ft 506 kts 25°
2026-04-24 06:49 43.23439 -109.20706 36960 ft 506 kts 25°
2026-04-24 06:50 43.29276 -109.15323 36960 ft 505 kts 25°
2026-04-24 06:50 43.35077 -109.09959 36969 ft 506 kts 25°
2026-04-24 06:51 43.40916 -109.04543 36952 ft 507 kts 25°
2026-04-24 06:51 43.46774 -108.99102 36954 ft 508 kts 25°
2026-04-24 06:52 43.52635 -108.93647 36961 ft 509 kts 25°
2026-04-24 06:52 43.58505 -108.88171 36974 ft 509 kts 25°
2026-04-24 06:53 43.64369 -108.82684 36993 ft 509 kts 25°
2026-04-24 06:53 43.70237 -108.77179 36999 ft 509 kts 25°
2026-04-24 06:54 43.76096 -108.71670 37021 ft 509 kts 25°
2026-04-24 06:54 43.81953 -108.66151 37020 ft 509 kts 25°
2026-04-24 06:55 43.87819 -108.60610 37032 ft 511 kts 25°
2026-04-24 06:55 43.93650 -108.55085 37037 ft 511 kts 25°
2026-04-24 06:56 43.99530 -108.49504 37037 ft 512 kts 25°
2026-04-24 06:56 44.05416 -108.43905 37047 ft 513 kts 26°
2026-04-24 06:57 44.11300 -108.38297 37030 ft 512 kts 26°
2026-04-24 06:57 44.17151 -108.32700 37046 ft 509 kts 26°
2026-04-24 06:58 44.22979 -108.27110 37025 ft 508 kts 26°
2026-04-24 06:58 44.28802 -108.21514 37045 ft 508 kts 26°
2026-04-24 06:59 44.34597 -108.15931 36990 ft 509 kts 26°
2026-04-24 06:59 44.40428 -108.10297 36975 ft 510 kts 26°
2026-04-24 07:00 44.46270 -108.04641 36971 ft 510 kts 26°
2026-04-24 07:00 44.52109 -107.98988 36971 ft 510 kts 26°
2026-04-24 07:01 44.57975 -107.93360 36979 ft 511 kts 26°
2026-04-24 07:01 44.63851 -107.87720 36999 ft 512 kts 26°
2026-04-24 07:02 44.69731 -107.82060 37016 ft 512 kts 26°
2026-04-24 07:02 44.75612 -107.76381 37031 ft 513 kts 26°
2026-04-24 07:03 44.81470 -107.70712 37048 ft 514 kts 26°
2026-04-24 07:03 44.87364 -107.64991 37047 ft 514 kts 26°
2026-04-24 07:04 44.93247 -107.59265 37052 ft 513 kts 27°
2026-04-24 07:04 44.98130 -107.54500 37058 ft 513 kts 27°
2026-04-24 07:05 45.03994 -107.48766 37045 ft 513 kts 27°
2026-04-24 07:05 45.09873 -107.43005 37038 ft 512 kts 27°
2026-04-24 07:06 45.15722 -107.37256 37042 ft 512 kts 27°
2026-04-24 07:06 45.21565 -107.31497 37032 ft 511 kts 27°
2026-04-24 07:07 45.27400 -107.25732 37043 ft 511 kts 27°
2026-04-24 07:07 45.36089 -107.17123 37031 ft 508 kts 27°
2026-04-24 07:08 45.41875 -107.11369 37022 ft 507 kts 27°
2026-04-24 07:08 45.47651 -107.05610 37027 ft 506 kts 27°
2026-04-24 07:09 45.53416 -106.99846 37025 ft 506 kts 27°
2026-04-24 07:09 45.59175 -106.94075 37021 ft 505 kts 28°
2026-04-24 07:10 45.64927 -106.88297 37019 ft 505 kts 28°
2026-04-24 07:10 45.70675 -106.82508 37018 ft 505 kts 28°
2026-04-24 07:11 45.76414 -106.76716 37023 ft 505 kts 28°
2026-04-24 07:11 45.82142 -106.70921 37013 ft 504 kts 28°
2026-04-24 07:12 45.87867 -106.65110 37015 ft 504 kts 28°
2026-04-24 07:12 45.93583 -106.59293 37013 ft 503 kts 28°
2026-04-24 07:13 45.99249 -106.53513 37017 ft 503 kts 29°
2026-04-24 07:13 46.04954 -106.47681 37006 ft 502 kts 29°
2026-04-24 07:14 46.10646 -106.41842 37004 ft 502 kts 29°
2026-04-24 07:14 46.16332 -106.35992 37005 ft 502 kts 29°
2026-04-24 07:15 46.22008 -106.30140 37021 ft 501 kts 30°
2026-04-24 07:15 46.27682 -106.24279 37007 ft 501 kts 30°
2026-04-24 07:16 46.33363 -106.18394 36999 ft 501 kts 30°
2026-04-24 07:16 46.39022 -106.12512 36987 ft 501 kts 30°
2026-04-24 07:17 46.44674 -106.06632 36817 ft 505 kts 30°
2026-04-24 07:17 46.50378 -106.00668 36807 ft 505 kts 31°
2026-04-24 07:18 46.55851 -105.94241 36787 ft 506 kts 35°
2026-04-24 07:18 46.61181 -105.87552 36760 ft 505 kts 36°
2026-04-24 07:19 46.66510 -105.80865 36749 ft 506 kts 35°
2026-04-24 07:19 46.71867 -105.74205 36761 ft 506 kts 35°
2026-04-24 07:20 46.77199 -105.67584 36955 ft 501 kts 35°
2026-04-24 07:20 46.79837 -105.64298 37103 ft 497 kts 36°
2026-04-24 07:20 46.82445 -105.61033 37432 ft 488 kts 36°
2026-04-24 07:21 46.84996 -105.57822 37835 ft 479 kts 36°
2026-04-24 07:21 46.87462 -105.54705 38233 ft 469 kts 36°
2026-04-24 07:21 46.89901 -105.51612 38634 ft 459 kts 36°
2026-04-24 07:21 46.92286 -105.48581 38897 ft 451 kts 36°
2026-04-24 07:22 46.97006 -105.42595 39001 ft 448 kts 36°
2026-04-24 07:22 47.01707 -105.36659 38987 ft 446 kts 36°
2026-04-24 07:23 47.06418 -105.30715 38987 ft 444 kts 36°
2026-04-24 07:23 47.11062 -105.24845 38981 ft 442 kts 36°
2026-04-24 07:24 47.15740 -105.18916 38984 ft 440 kts 36°
2026-04-24 07:24 47.20364 -105.13042 38978 ft 438 kts 36°
2026-04-24 07:25 47.24964 -105.07184 38980 ft 436 kts 36°
2026-04-24 07:25 47.29539 -105.01343 38978 ft 434 kts 36°
2026-04-24 07:26 47.34080 -104.95527 38944 ft 431 kts 36°
2026-04-24 07:26 47.38565 -104.89772 38949 ft 428 kts 36°
2026-04-24 07:27 47.43042 -104.84014 38957 ft 425 kts 37°
2026-04-24 07:27 47.47488 -104.78282 38965 ft 422 kts 37°
2026-04-24 07:28 47.51900 -104.72581 38973 ft 419 kts 37°
2026-04-24 07:28 47.56271 -104.66919 38967 ft 416 kts 37°
2026-04-24 07:29 47.60601 -104.61296 38947 ft 412 kts 37°
2026-04-24 07:29 47.64883 -104.55721 38930 ft 408 kts 37°
2026-04-24 07:30 47.69123 -104.50186 38920 ft 403 kts 37°
2026-04-24 07:30 47.73305 -104.44713 38908 ft 398 kts 37°
2026-04-24 07:31 47.77450 -104.39330 38886 ft 394 kts 31°
2026-04-24 07:31 47.79925 -104.37588 38215 ft 405 kts 359°
2026-04-24 07:31 47.82698 -104.38323 36527 ft 418 kts 316°
2026-04-24 07:32 47.84294 -104.41758 35341 ft 407 kts 268°
2026-04-24 07:32 47.83599 -104.45554 35128 ft 381 kts 219°
2026-04-24 07:32 47.81291 -104.47095 35367 ft 370 kts 174°
2026-04-24 07:32 47.78927 -104.45698 35203 ft 383 kts 132°
2026-04-24 07:33 47.77776 -104.42130 34646 ft 410 kts 88°
2026-04-24 07:33 47.78653 -104.38103 34166 ft 424 kts 41°
2026-04-24 07:33 47.81179 -104.36166 34111 ft 410 kts 354°
2026-04-24 07:33 47.83765 -104.37341 34172 ft 385 kts 309°
2026-04-24 07:34 47.84984 -104.40668 33954 ft 368 kts 264°
2026-04-24 07:34 47.84207 -104.44154 33571 ft 364 kts 219°
2026-04-24 07:34 47.81908 -104.45541 33364 ft 372 kts 172°
2026-04-24 07:34 47.79637 -104.43889 33282 ft 385 kts 127°
2026-04-24 07:35 47.78760 -104.40081 33139 ft 401 kts 81°
2026-04-24 07:35 47.79885 -104.36352 32845 ft 409 kts 36°